Location: Bush Observatory
(40.2653°N, 94.3194°W)
Time: 04:23:05
(UTC-05:00)

Tiangong 2 - Visible Passes

Search period start: 19 July 2018 00:00
Search period end: 29 July 2018 00:00
Orbit: 386 x 394 km, 42.8° (Epoch: 18 July)

Date Brightness Start Highest point End Pass type
(mag) Time Alt. Az. Time Alt. Az. Time Alt. Az.
19 Jul 1.7 21:32:25 10° WNW 21:35:34 54° N 21:38:41 10° E visible
19 Jul 2.5 23:09:21 10° WNW 23:11:19 33° W 23:11:19 33° W visible
20 Jul 1.0 22:11:37 10° WNW 22:14:48 89° SW 22:16:01 35° ESE visible
21 Jul 1.3 21:13:54 10° WNW 21:17:05 67° NNE 21:20:15 10° E visible
21 Jul 2.6 22:50:56 10° W 22:53:03 28° WSW 22:53:03 28° WSW visible
22 Jul 1.4 21:53:05 10° WNW 21:56:13 54° SSW 21:57:47 25° SE visible
23 Jul 3.1 22:32:48 10° W 22:34:52 18° SW 22:34:52 18° SW visible
24 Jul 2.4 21:34:39 10° W 21:37:31 30° SSW 21:39:40 15° SSE visible
26 Jul 3.4 21:16:34 10° WSW 21:18:42 17° SW 21:20:50 10° S visible
